| time (UTC) | temp F | wind direction | speed MPH | gust MPH | rain 1hr in | rain 24hr in | rain mn in | humidity % | barometer mb |
| 20260904223027 | 67 | 278 | 0.0 | 0.0 | 0.00 | 0.00 | 0.00 | 68 | 1011.9 |
| 20260904221527 | 67 | 278 | 0.0 | 0.0 | 0.00 | 0.00 | 0.00 | 68 | 1011.9 |
| 20260904220030 | 67 | 278 | 0.0 | 0.0 | 0.00 | 0.00 | 0.00 | 66 | 1011.9 |
| 20260904214533 | 68 | 278 | 0.0 | 0.0 | 0.00 | 0.00 | 0.00 | 65 | 1011.9 |
| 20260904213022 | 69 | 278 | 0.0 | 0.0 | 0.00 | 0.00 | 0.00 | 63 | 1012.0 |
| 20260904211526 | 69 | 278 | 0.0 | 0.0 | 0.00 | 0.00 | 0.00 | 62 | 1012.0 |
| 20260904210024 | 70 | 278 | 0.0 | 0.0 | 0.00 | 0.00 | 0.00 | 60 | 1012.0 |
| 20260904204520 | 71 | 278 | 0.0 | 0.0 | 0.00 | 0.00 | 0.00 | 59 | 1012.0 |
| 20260904203031 | 71 | 279 | 0.0 | 0.0 | 0.00 | 0.00 | 0.00 | 57 | 1011.9 |
| 20260904201519 | 72 | 279 | 0.0 | 0.0 | 0.00 | 0.00 | 0.00 | 56 | 1011.9 |
| 20260904200019 | 73 | 274 | 0.0 | 0.0 | 0.00 | 0.00 | 0.00 | 55 | 1011.9 |
| 20260904194523 | 73 | 274 | 0.0 | 0.0 | 0.00 | 0.00 | 0.00 | 54 | 1011.8 |
| 20260904193018 | 74 | 274 | 0.0 | 0.0 | 0.00 | 0.00 | 0.00 | 52 | 1011.9 |
| 20260904191518 | 75 | 274 | 0.0 | 0.0 | 0.00 | 0.00 | 0.00 | 51 | 1011.9 |
| 20260904190017 | 75 | 273 | 0.0 | 1.0 | 0.00 | 0.00 | 0.00 | 49 | 1011.7 |
| 20260904184525 | 76 | 254 | 0.0 | 1.0 | 0.00 | 0.00 | 0.00 | 49 | 1011.5 |
| 20260904183017 | 77 | 254 | 0.0 | 0.0 | 0.00 | 0.00 | 0.00 | 48 | 1011.4 |
| 20260904181516 | 79 | 254 | 0.0 | 0.0 | 0.00 | 0.00 | 0.00 | 46 | 1011.1 |
| 20260904180016 | 81 | 254 | 0.0 | 0.0 | 0.00 | 0.00 | 0.00 | 43 | 1010.9 |
| 20260904174516 | 82 | 254 | 0.0 | 0.0 | 0.00 | 0.00 | 0.00 | 41 | 1010.9 |
| 20260904173029 | 84 | 254 | 0.0 | 0.0 | 0.00 | 0.00 | 0.00 | 38 | 1010.9 |
| 20260904171516 | 86 | 254 | 0.0 | 1.0 | 0.00 | 0.00 | 0.00 | 36 | 1010.9 |
| 20260904170015 | 87 | 250 | 0.0 | 2.0 | 0.00 | 0.00 | 0.00 | 33 | 1011.0 |
| 20260904164514 | 88 | 152 | 0.0 | 3.0 | 0.00 | 0.00 | 0.00 | 33 | 1011.1 |
| 20260904163010 | 88 | 321 | 0.0 | 6.0 | 0.00 | 0.00 | 0.00 | 33 | 1011.4 |
| 20260904161508 | 89 | 184 | 0.0 | 4.0 | 0.00 | 0.00 | 0.00 | 33 | 1011.6 |
| 20260904160007 | 89 | 211 | 1.0 | 8.0 | 0.00 | 0.00 | 0.00 | 32 | 1011.8 |
| 20260904154505 | 89 | 107 | 0.0 | 5.0 | 0.00 | 0.00 | 0.00 | 33 | 1011.9 |
| 20260904153004 | 89 | 215 | 1.0 | 4.0 | 0.00 | 0.00 | 0.00 | 33 | 1012.2 |
| 20260904151501 | 90 | 126 | 0.0 | 5.0 | 0.00 | 0.00 | 0.00 | 33 | 1012.4 |
| 20260904150104 | 90 | 355 | 0.0 | 5.0 | 0.00 | 0.00 | 0.00 | 33 | 1012.7 |
| 20260904144607 | 90 | 355 | 0.0 | 6.0 | 0.00 | 0.00 | 0.00 | 33 | 1012.8 |
| 20260904143056 | 89 | 184 | 1.0 | 8.0 | 0.00 | 0.00 | 0.00 | 34 | 1013.0 |
| 20260904141553 | 90 | 246 | 0.0 | 3.0 | 0.00 | 0.00 | 0.00 | 34 | 1013.2 |
| 20260904140057 | 89 | 193 | 1.0 | 7.0 | 0.00 | 0.00 | 0.00 | 35 | 1013.4 |
| 20260904134551 | 89 | 121 | 1.0 | 8.0 | 0.00 | 0.00 | 0.00 | 35 | 1013.8 |
| 20260904133047 | 89 | 182 | 2.0 | 7.0 | 0.00 | 0.00 | 0.00 | 35 | 1013.8 |
| 20260904131545 | 89 | 161 | 2.0 | 9.0 | 0.00 | 0.00 | 0.00 | 36 | 1014.1 |
| 20260904130044 | 89 | 227 | 1.0 | 5.0 | 0.00 | 0.00 | 0.00 | 37 | 1014.3 |
| 20260904124540 | 88 | 182 | 1.0 | 8.0 | 0.00 | 0.00 | 0.00 | 37 | 1014.5 |
| 20260904123038 | 88 | 113 | 2.0 | 8.0 | 0.00 | 0.00 | 0.00 | 37 | 1014.7 |
| 20260904121537 | 88 | 125 | 1.0 | 5.0 | 0.00 | 0.00 | 0.00 | 38 | 1014.8 |
| 20260904120033 | 88 | 264 | 2.0 | 8.0 | 0.00 | 0.00 | 0.00 | 38 | 1015.0 |
| 20260904114537 | 87 | 242 | 1.0 | 13.0 | 0.00 | 0.00 | 0.00 | 38 | 1015.3 |
| 20260904113033 | 87 | 323 | 2.0 | 12.0 | 0.00 | 0.00 | 0.00 | 39 | 1015.6 |
| 20260904111528 | 86 | 171 | 2.0 | 9.0 | 0.00 | 0.00 | 0.00 | 39 | 1015.8 |
| 20260904110026 | 86 | 355 | 2.0 | 6.0 | 0.00 | 0.00 | 0.00 | 39 | 1016.3 |
| 20260904104523 | 87 | 24 | 1.0 | 7.0 | 0.00 | 0.00 | 0.00 | 39 | 1016.3 |
| 20260904103020 | 86 | 5 | 2.0 | 10.0 | 0.00 | 0.00 | 0.00 | 41 | 1016.6 |
| 20260904101518 | 85 | 157 | 1.0 | 11.0 | 0.00 | 0.00 | 0.00 | 42 | 1017.0 |
| 20260904100014 | 84 | 193 | 3.0 | 15.0 | 0.00 | 0.00 | 0.00 | 43 | 1017.3 |
| 20260904094524 | 84 | 121 | 0.0 | 12.0 | 0.00 | 0.00 | 0.00 | 44 | 1017.5 |
| 20260904093008 | 83 | 338 | 2.0 | 9.0 | 0.00 | 0.00 | 0.00 | 46 | 1017.6 |
| 20260904091505 | 81 | 341 | 1.0 | 5.0 | 0.00 | 0.00 | 0.00 | 48 | 1017.7 |
| 20260904090002 | 80 | 159 | 0.0 | 5.0 | 0.00 | 0.00 | 0.00 | 50 | 1017.9 |
| 20260904084600 | 79 | 25 | 1.0 | 8.0 | 0.00 | 0.00 | 0.00 | 53 | 1018.0 |
| 20260904083107 | 77 | 77 | 0.0 | 2.0 | 0.00 | 0.00 | 0.00 | 58 | 1018.1 |
| 20260904081557 | 78 | 117 | 1.0 | 4.0 | 0.00 | 0.00 | 0.00 | 56 | 1018.2 |
| 20260904080104 | 80 | 92 | 0.0 | 6.0 | 0.00 | 0.00 | 0.00 | 53 | 1018.2 |
| 20260904074556 | 79 | 92 | 0.0 | 3.0 | 0.00 | 0.00 | 0.00 | 55 | 1018.3 |
| 20260904073101 | 76 | 94 | 0.0 | 4.0 | 0.00 | 0.00 | 0.00 | 57 | 1018.3 |
| 20260904071546 | 75 | 170 | 0.0 | 2.0 | 0.00 | 0.00 | 0.00 | 59 | 1018.5 |
| 20260904070045 | 74 | 149 | 0.0 | 2.0 | 0.00 | 0.00 | 0.00 | 62 | 1018.6 |
| 20260904064542 | 72 | 94 | 0.0 | 2.0 | 0.00 | 0.00 | 0.00 | 66 | 1018.6 |
| 20260904063035 | 69 | 252 | 0.0 | 0.0 | 0.00 | 0.00 | 0.00 | 73 | 1018.5 |
| 20260904061538 | 67 | 252 | 0.0 | 0.0 | 0.00 | 0.00 | 0.00 | 79 | 1018.6 |
| 20260904060046 | 64 | 252 | 0.0 | 0.0 | 0.00 | 0.00 | 0.00 | 81 | 1018.7 |
| 20260904054538 | 63 | 252 | 0.0 | 0.0 | 0.00 | 0.00 | 0.00 | 81 | 1018.5 |
| 20260904053024 | 62 | 252 | 0.0 | 0.0 | 0.00 | 0.00 | 0.00 | 81 | 1018.5 |
| 20260904051525 | 62 | 252 | 0.0 | 0.0 | 0.00 | 0.00 | 0.00 | 81 | 1018.7 |
| 20260904050037 | 61 | 252 | 0.0 | 0.0 | 0.00 | 0.00 | 0.00 | 82 | 1018.6 |
| 20260904044526 | 61 | 252 | 0.0 | 0.0 | 0.00 | 0.00 | 0.00 | 82 | 1018.6 |
| 20260904043019 | 61 | 252 | 0.0 | 0.0 | 0.00 | 0.00 | 0.00 | 82 | 1018.6 |
| 20260904041520 | 61 | 252 | 0.0 | 0.0 | 0.00 | 0.00 | 0.00 | 81 | 1018.6 |
| 20260904040033 | 62 | 252 | 0.0 | 0.0 | 0.00 | 0.00 | 0.00 | 81 | 1018.5 |
| 20260904034514 | 63 | 252 | 0.0 | 0.0 | 0.00 | 0.00 | 0.00 | 80 | 1018.7 |
| 20260904033011 | 63 | 252 | 0.0 | 0.0 | 0.00 | 0.00 | 0.00 | 80 | 1018.5 |
| 20260904031512 | 64 | 252 | 0.0 | 0.0 | 0.00 | 0.00 | 0.00 | 78 | 1018.4 |
| 20260904030006 | 64 | 252 | 0.0 | 0.0 | 0.00 | 0.00 | 0.00 | 77 | 1018.4 |
| 20260904024508 | 65 | 252 | 0.0 | 0.0 | 0.00 | 0.00 | 0.00 | 76 | 1018.4 |
| 20260904023007 | 65 | 252 | 0.0 | 0.0 | 0.00 | 0.00 | 0.00 | 76 | 1018.3 |
| 20260904021512 | 65 | 252 | 0.0 | 0.0 | 0.00 | 0.00 | 0.00 | 77 | 1018.3 |
| 20260904020004 | 65 | 252 | 0.0 | 0.0 | 0.00 | 0.00 | 0.00 | 76 | 1018.4 |
| 20260904014502 | 65 | 252 | 0.0 | 0.0 | 0.00 | 0.00 | 0.00 | 76 | 1018.3 |
| 20260904013124 | 65 | 252 | 0.0 | 0.0 | 0.00 | 0.00 | 0.00 | 75 | 1018.6 |
| 20260904011600 | 65 | 252 | 0.0 | 0.0 | 0.00 | 0.00 | 0.00 | 74 | 1018.5 |
| 20260904010059 | 65 | 252 | 0.0 | 0.0 | 0.00 | 0.00 | 0.00 | 75 | 1018.7 |
| 20260904004558 | 65 | 252 | 0.0 | 0.0 | 0.00 | 0.00 | 0.00 | 75 | 1018.8 |
| 20260904003056 | 65 | 252 | 0.0 | 0.0 | 0.00 | 0.00 | 0.00 | 75 | 1019.0 |
| 20260904001607 | 65 | 252 | 0.0 | 0.0 | 0.00 | 0.00 | 0.00 | 74 | 1019.2 |
| 20260904000054 | 65 | 252 | 0.0 | 0.0 | 0.00 | 0.00 | 0.00 | 73 | 1019.2 |
| 20260903234552 | 65 | 252 | 0.0 | 0.0 | 0.00 | 0.00 | 0.00 | 73 | 1019.1 |
| 20260903233049 | 66 | 252 | 0.0 | 0.0 | 0.00 | 0.00 | 0.00 | 70 | 1019.2 |
| 20260903231544 | 67 | 252 | 0.0 | 0.0 | 0.00 | 0.00 | 0.00 | 69 | 1019.2 |
| 20260903230041 | 68 | 252 | 0.0 | 1.0 | 0.00 | 0.00 | 0.00 | 68 | 1019.4 |
| 20260903224541 | 68 | 250 | 0.0 | 1.0 | 0.00 | 0.00 | 0.00 | 66 | 1019.5 |